Time,TemperatureF,DewpointF,PressureIn,WindDirection,WindDirectionDegrees,WindSpeedMPH,WindSpeedGustMPH,Humidity,HourlyPrecipIn,Conditions,Clouds,dailyrainin,SolarRadiationWatts/m^2,SoftwareType,DateUTC
2013-09-10 00:00:00,79.8,66.5,29.82,WSW,248,0.0,6.0,64,0.00,,,0.00,0,Wunderground v.1.15,2013-09-10 05:00:00,
2013-09-10 00:06:00,79.8,66.5,29.82,WSW,243,1.0,6.0,64,0.00,,,0.00,0,Wunderground v.1.15,2013-09-10 05:06:00,
2013-09-10 00:12:00,79.8,66.5,29.82,SW,226,1.0,6.0,64,0.00,,,0.00,0,Wunderground v.1.15,2013-09-10 05:12:00,
2013-09-10 00:18:00,79.8,66.5,29.82,SW,229,1.0,6.0,64,0.00,,,0.00,0,Wunderground v.1.15,2013-09-10 05:18:00,
2013-09-10 00:24:00,79.7,66.0,29.82,SW,221,1.0,6.0,63,0.00,,,0.00,0,Wunderground v.1.15,2013-09-10 05:24:00,
2013-09-10 00:30:00,79.7,66.0,29.82,SSW,209,1.0,1.0,63,0.00,,,0.00,0,Wunderground v.1.15,2013-09-10 05:30:00,
2013-09-10 00:34:00,79.7,66.0,29.82,SW,225,0.0,6.0,63,0.00,,,0.00,0,Wunderground v.1.15,2013-09-10 05:34:00,
2013-09-10 00:40:00,79.7,66.0,29.83,SW,232,1.0,1.0,63,0.00,,,0.00,0,Wunderground v.1.15,2013-09-10 05:40:00,
2013-09-10 00:46:00,79.6,65.9,29.82,WSW,243,1.0,7.0,63,0.00,,,0.00,0,Wunderground v.1.15,2013-09-10 05:46:00,
2013-09-10 00:52:00,79.6,65.9,29.83,SSW,193,1.0,6.0,63,0.00,,,0.00,0,Wunderground v.1.15,2013-09-10 05:52:00,
2013-09-10 00:58:00,79.4,65.7,29.83,SW,232,1.0,6.0,63,0.00,,,0.00,0,Wunderground v.1.15,2013-09-10 05:58:00,
2013-09-10 01:04:00,79.3,65.6,29.83,SW,217,1.0,6.0,63,0.00,,,0.00,0,Wunderground v.1.15,2013-09-10 06:04:00,
2013-09-10 01:10:00,79.2,65.5,29.83,SW,215,2.0,2.0,63,0.00,,,0.00,0,Wunderground v.1.15,2013-09-10 06:10:00,
2013-09-10 01:16:00,79.1,65.4,29.83,WSW,242,1.0,6.0,63,0.00,,,0.00,0,Wunderground v.1.15,2013-09-10 06:16:00,
2013-09-10 01:22:00,78.8,65.6,29.83,WSW,250,0.0,6.0,64,0.00,,,0.00,0,Wunderground v.1.15,2013-09-10 06:22:00,
2013-09-10 01:28:00,78.5,65.3,29.83,SSW,211,1.0,6.0,64,0.00,,,0.00,0,Wunderground v.1.15,2013-09-10 06:28:00,
2013-09-10 01:34:00,78.4,65.7,29.83,West,269,1.0,6.0,65,0.00,,,0.00,0,Wunderground v.1.15,2013-09-10 06:34:00,
2013-09-10 01:40:00,78.2,65.5,29.83,SW,218,1.0,1.0,65,0.00,,,0.00,0,Wunderground v.1.15,2013-09-10 06:40:00,
2013-09-10 01:46:00,78.0,65.3,29.83,West,260,0.0,6.0,65,0.00,,,0.00,0,Wunderground v.1.15,2013-09-10 06:46:00,
2013-09-10 01:52:00,77.8,65.1,29.83,WSW,246,0.0,6.0,65,0.00,,,0.00,0,Wunderground v.1.15,2013-09-10 06:52:00,
2013-09-10 01:58:00,77.7,65.0,29.83,WSW,254,0.0,6.0,65,0.00,,,0.00,0,Wunderground v.1.15,2013-09-10 06:58:00,
2013-09-10 02:04:00,77.6,65.3,29.83,SW,230,0.0,6.0,66,0.00,,,0.00,0,Wunderground v.1.15,2013-09-10 07:04:00,
2013-09-10 02:10:00,77.5,64.8,29.83,SSW,205,1.0,1.0,65,0.00,,,0.00,0,Wunderground v.1.15,2013-09-10 07:10:00,
2013-09-10 02:16:00,77.4,65.1,29.83,WSW,250,0.0,6.0,66,0.00,,,0.00,0,Wunderground v.1.15,2013-09-10 07:16:00,
2013-09-10 02:22:00,77.2,65.0,29.84,South,188,0.0,6.0,66,0.00,,,0.00,0,Wunderground v.1.15,2013-09-10 07:22:00,
2013-09-10 02:28:00,77.1,64.9,29.84,WSW,238,0.0,6.0,66,0.00,,,0.00,0,Wunderground v.1.15,2013-09-10 07:28:00,
2013-09-10 02:34:00,77.0,64.8,29.84,SSW,200,0.0,6.0,66,0.00,,,0.00,0,Wunderground v.1.15,2013-09-10 07:34:00,
2013-09-10 02:40:00,76.9,64.7,29.84,West,269,0.0,6.0,66,0.00,,,0.00,0,Wunderground v.1.15,2013-09-10 07:40:00,
2013-09-10 02:46:00,76.9,64.7,29.84,West,260,0.0,6.0,66,0.00,,,0.00,0,Wunderground v.1.15,2013-09-10 07:46:00,
2013-09-10 02:52:00,76.7,64.9,29.84,SSW,192,0.0,6.0,67,0.00,,,0.00,0,Wunderground v.1.15,2013-09-10 07:52:00,
2013-09-10 02:58:00,76.5,64.7,29.85,SSW,207,0.0,6.0,67,0.00,,,0.00,0,Wunderground v.1.15,2013-09-10 07:58:00,
2013-09-10 03:04:00,76.3,64.5,29.85,WSW,246,0.0,6.0,67,0.00,,,0.00,0,Wunderground v.1.15,2013-09-10 08:04:00,
2013-09-10 03:10:00,76.2,64.9,29.85,SW,219,1.0,1.0,68,0.00,,,0.00,0,Wunderground v.1.15,2013-09-10 08:10:00,
2013-09-10 03:16:00,76.0,64.7,29.85,WSW,238,0.0,6.0,68,0.00,,,0.00,0,Wunderground v.1.15,2013-09-10 08:16:00,
2013-09-10 03:22:00,75.8,64.5,29.85,SW,226,0.0,6.0,68,0.00,,,0.00,0,Wunderground v.1.15,2013-09-10 08:22:00,
2013-09-10 03:28:00,75.5,64.6,29.85,SW,225,0.0,6.0,69,0.00,,,0.00,0,Wunderground v.1.15,2013-09-10 08:28:00,
2013-09-10 03:34:00,75.3,64.4,29.85,SSW,192,0.0,6.0,69,0.00,,,0.00,0,Wunderground v.1.15,2013-09-10 08:34:00,
2013-09-10 03:40:00,75.1,64.6,29.85,SW,216,0.0,6.0,70,0.00,,,0.00,0,Wunderground v.1.15,2013-09-10 08:40:00,
2013-09-10 03:46:00,74.8,64.4,29.85,WSW,249,0.0,6.0,70,0.00,,,0.00,0,Wunderground v.1.15,2013-09-10 08:46:00,
2013-09-10 03:52:00,74.7,64.7,29.85,SW,223,1.0,6.0,71,0.00,,,0.00,0,Wunderground v.1.15,2013-09-10 08:52:00,
2013-09-10 03:58:00,74.7,64.7,29.86,SW,234,1.0,6.0,71,0.00,,,0.00,0,Wunderground v.1.15,2013-09-10 08:58:00,
2013-09-10 04:04:00,74.6,64.6,29.86,SW,229,0.0,6.0,71,0.00,,,0.00,0,Wunderground v.1.15,2013-09-10 09:04:00,
2013-09-10 04:10:00,74.6,64.6,29.86,SW,229,0.0,6.0,71,0.00,,,0.00,0,Wunderground v.1.15,2013-09-10 09:10:00,
2013-09-10 04:16:00,74.4,64.4,29.86,SW,229,0.0,6.0,71,0.00,,,0.00,0,Wunderground v.1.15,2013-09-10 09:16:00,
2013-09-10 04:22:00,74.3,64.3,29.86,SW,229,0.0,6.0,71,0.00,,,0.00,0,Wunderground v.1.15,2013-09-10 09:22:00,
2013-09-10 04:28:00,74.1,64.5,29.86,SW,229,0.0,6.0,72,0.00,,,0.00,0,Wunderground v.1.15,2013-09-10 09:28:00,
2013-09-10 04:34:00,73.9,64.3,29.86,SW,229,0.0,6.0,72,0.00,,,0.00,0,Wunderground v.1.15,2013-09-10 09:34:00,
2013-09-10 04:40:00,73.7,64.5,29.87,SW,229,0.0,6.0,73,0.00,,,0.00,0,Wunderground v.1.15,2013-09-10 09:40:00,
2013-09-10 04:46:00,73.4,64.2,29.87,SW,229,0.0,6.0,73,0.00,,,0.00,0,Wunderground v.1.15,2013-09-10 09:46:00,
2013-09-10 04:52:00,73.2,64.4,29.87,SW,229,0.0,6.0,74,0.00,,,0.00,0,Wunderground v.1.15,2013-09-10 09:52:00,
2013-09-10 04:58:00,72.9,64.1,29.87,SW,229,0.0,6.0,74,0.00,,,0.00,0,Wunderground v.1.15,2013-09-10 09:58:00,
2013-09-10 05:04:00,72.6,64.2,29.87,SW,229,0.0,6.0,75,0.00,,,0.00,0,Wunderground v.1.15,2013-09-10 10:04:00,
2013-09-10 05:10:00,72.3,63.9,29.87,SW,229,0.0,6.0,75,0.00,,,0.00,0,Wunderground v.1.15,2013-09-10 10:10:00,
2013-09-10 05:16:00,72.1,64.1,29.88,SW,229,0.0,6.0,76,0.00,,,0.00,0,Wunderground v.1.15,2013-09-10 10:16:00,
2013-09-10 05:22:00,71.9,63.9,29.88,SW,229,0.0,6.0,76,0.00,,,0.00,0,Wunderground v.1.15,2013-09-10 10:22:00,
2013-09-10 05:28:00,71.7,64.1,29.88,SW,229,0.0,6.0,77,0.00,,,0.00,0,Wunderground v.1.15,2013-09-10 10:28:00,
2013-09-10 05:34:00,71.6,64.0,29.88,SW,229,0.0,6.0,77,0.00,,,0.00,0,Wunderground v.1.15,2013-09-10 10:34:00,
2013-09-10 05:40:00,71.4,63.8,29.88,SW,229,0.0,6.0,77,0.00,,,0.00,0,Wunderground v.1.15,2013-09-10 10:40:00,
2013-09-10 05:46:00,71.2,64.0,29.88,SW,229,0.0,6.0,78,0.00,,,0.00,0,Wunderground v.1.15,2013-09-10 10:46:00,
2013-09-10 05:52:00,71.0,63.8,29.88,SW,229,0.0,6.0,78,0.00,,,0.00,0,Wunderground v.1.15,2013-09-10 10:52:00,
2013-09-10 05:58:00,70.9,63.7,29.88,SW,229,0.0,6.0,78,0.00,,,0.00,0,Wunderground v.1.15,2013-09-10 10:58:00,
2013-09-10 06:04:00,70.8,63.6,29.88,SW,229,0.0,6.0,78,0.00,,,0.00,0,Wunderground v.1.15,2013-09-10 11:04:00,
2013-09-10 06:10:00,70.8,63.6,29.89,SW,229,0.0,6.0,78,0.00,,,0.00,0,Wunderground v.1.15,2013-09-10 11:10:00,
2013-09-10 06:16:00,70.8,64.0,29.89,SW,229,0.0,6.0,79,0.00,,,0.00,0,Wunderground v.1.15,2013-09-10 11:16:00,
2013-09-10 06:22:00,70.7,63.9,29.89,SW,229,0.0,6.0,79,0.00,,,0.00,0,Wunderground v.1.15,2013-09-10 11:22:00,
2013-09-10 06:28:00,70.6,63.8,29.89,SW,229,0.0,6.0,79,0.00,,,0.00,0,Wunderground v.1.15,2013-09-10 11:28:00,
2013-09-10 06:34:00,70.6,63.8,29.89,SW,229,0.0,6.0,79,0.00,,,0.00,0,Wunderground v.1.15,2013-09-10 11:34:00,
2013-09-10 06:40:00,70.6,63.8,29.89,SW,229,0.0,6.0,79,0.00,,,0.00,5,Wunderground v.1.15,2013-09-10 11:40:00,
2013-09-10 06:46:00,70.5,63.7,29.90,SW,229,0.0,6.0,79,0.00,,,0.00,7,Wunderground v.1.15,2013-09-10 11:46:00,
2013-09-10 06:52:00,70.5,64.0,29.90,SW,229,0.0,6.0,80,0.00,,,0.00,12,Wunderground v.1.15,2013-09-10 11:52:00,
2013-09-10 06:58:00,70.5,64.0,29.90,SW,229,0.0,6.0,80,0.00,,,0.00,16,Wunderground v.1.15,2013-09-10 11:58:00,
2013-09-10 07:04:00,70.5,64.0,29.91,SW,229,0.0,6.0,80,0.00,,,0.00,19,Wunderground v.1.15,2013-09-10 12:04:00,
2013-09-10 07:10:00,70.6,64.1,29.90,SW,229,0.0,6.0,80,0.00,,,0.00,23,Wunderground v.1.15,2013-09-10 12:10:00,
2013-09-10 07:16:00,70.7,64.2,29.91,SW,229,0.0,6.0,80,0.00,,,0.00,26,Wunderground v.1.15,2013-09-10 12:16:00,
2013-09-10 07:22:00,70.9,64.4,29.91,SW,229,0.0,6.0,80,0.00,,,0.00,30,Wunderground v.1.15,2013-09-10 12:22:00,
2013-09-10 07:28:00,71.2,64.7,29.91,SW,229,0.0,6.0,80,0.00,,,0.00,32,Wunderground v.1.15,2013-09-10 12:28:00,
2013-09-10 07:34:00,71.4,64.5,29.91,SW,229,0.0,6.0,79,0.00,,,0.00,35,Wunderground v.1.15,2013-09-10 12:34:00,
2013-09-10 07:40:00,71.8,64.9,29.91,SSW,196,0.0,6.0,79,0.00,,,0.00,37,Wunderground v.1.15,2013-09-10 12:40:00,
2013-09-10 07:46:00,72.0,65.1,29.92,SSW,196,0.0,6.0,79,0.00,,,0.00,40,Wunderground v.1.15,2013-09-10 12:46:00,
2013-09-10 07:52:00,72.2,65.3,29.91,SSW,196,0.0,6.0,79,0.00,,,0.00,51,Wunderground v.1.15,2013-09-10 12:52:00,
2013-09-10 07:58:00,72.5,65.2,29.92,SSW,192,0.0,6.0,78,0.00,,,0.00,93,Wunderground v.1.15,2013-09-10 12:58:00,
2013-09-10 08:04:00,72.8,65.5,29.92,SSW,193,0.0,6.0,78,0.00,,,0.00,90,Wunderground v.1.15,2013-09-10 13:04:00,
2013-09-10 08:10:00,73.3,65.7,29.92,SSW,193,0.0,6.0,77,0.00,,,0.00,121,Wunderground v.1.15,2013-09-10 13:10:00,
2013-09-10 08:16:00,73.7,66.0,29.92,SW,236,0.0,6.0,77,0.00,,,0.00,195,Wunderground v.1.15,2013-09-10 13:16:00,
2013-09-10 08:22:00,74.4,66.3,29.92,SW,217,0.0,6.0,76,0.00,,,0.00,250,Wunderground v.1.15,2013-09-10 13:22:00,
2013-09-10 08:28:00,75.0,66.5,29.92,SSW,198,0.0,6.0,75,0.00,,,0.00,181,Wunderground v.1.15,2013-09-10 13:28:00,
2013-09-10 08:34:00,75.5,66.6,29.92,SSW,203,0.0,6.0,74,0.00,,,0.00,69,Wunderground v.1.15,2013-09-10 13:34:00,
2013-09-10 08:40:00,76.1,66.8,29.92,SSW,198,0.0,6.0,73,0.00,,,0.00,72,Wunderground v.1.15,2013-09-10 13:40:00,
2013-09-10 08:46:00,76.6,66.9,29.93,SSW,194,1.0,6.0,72,0.00,,,0.00,169,Wunderground v.1.15,2013-09-10 13:46:00,
2013-09-10 08:52:00,77.2,67.1,29.92,SW,230,1.0,7.0,71,0.00,,,0.00,258,Wunderground v.1.15,2013-09-10 13:52:00,
2013-09-10 08:58:00,77.9,67.3,29.93,SSE,163,2.0,7.0,70,0.00,,,0.00,322,Wunderground v.1.15,2013-09-10 13:58:00,
2013-09-10 09:06:00,78.8,67.8,29.93,SW,214,1.0,6.0,69,0.00,,,0.00,383,Wunderground v.1.15,2013-09-10 14:06:00,
2013-09-10 09:12:00,79.4,67.9,29.93,SW,225,1.0,3.0,68,0.00,,,0.00,401,Wunderground v.1.15,2013-09-10 14:12:00,
2013-09-10 09:18:00,79.9,68.0,29.93,SW,225,1.0,6.0,67,0.00,,,0.00,418,Wunderground v.1.15,2013-09-10 14:18:00,
2013-09-10 09:24:00,80.5,68.5,29.93,WSW,255,1.0,6.0,67,0.00,,,0.00,434,Wunderground v.1.15,2013-09-10 14:24:00,
2013-09-10 09:30:00,81.0,68.6,29.93,SW,235,1.0,6.0,66,0.00,,,0.00,448,Wunderground v.1.15,2013-09-10 14:30:00,
2013-09-10 09:36:00,81.5,68.1,29.94,SW,223,2.0,7.0,64,0.00,,,0.00,464,Wunderground v.1.15,2013-09-10 14:36:00,
2013-09-10 09:42:00,82.0,68.6,29.94,SW,230,3.0,9.0,64,0.00,,,0.00,480,Wunderground v.1.15,2013-09-10 14:42:00,
2013-09-10 09:48:00,82.5,69.1,29.94,WSW,238,2.0,9.0,64,0.00,,,0.00,494,Wunderground v.1.15,2013-09-10 14:48:00,
2013-09-10 09:54:00,83.0,69.1,29.93,WSW,248,1.0,6.0,63,0.00,,,0.00,510,Wunderground v.1.15,2013-09-10 14:54:00,
2013-09-10 10:00:00,83.3,68.9,29.94,WSW,239,2.0,9.0,62,0.00,,,0.00,524,Wunderground v.1.15,2013-09-10 15:00:00,
2013-09-10 10:06:00,83.6,69.2,29.93,SSW,200,2.0,9.0,62,0.00,,,0.00,541,Wunderground v.1.15,2013-09-10 15:06:00,
2013-09-10 10:12:00,84.1,69.2,29.94,SW,229,1.0,6.0,61,0.00,,,0.00,554,Wunderground v.1.15,2013-09-10 15:12:00,
2013-09-10 10:18:00,84.7,69.8,29.93,West,263,1.0,6.0,61,0.00,,,0.00,570,Wunderground v.1.15,2013-09-10 15:18:00,
2013-09-10 10:24:00,85.2,69.3,29.93,SW,233,2.0,10.0,59,0.00,,,0.00,584,Wunderground v.1.15,2013-09-10 15:24:00,
2013-09-10 10:30:00,85.9,69.4,29.93,South,170,3.0,3.0,58,0.00,,,0.00,596,Wunderground v.1.15,2013-09-10 15:30:00,
2013-09-10 10:36:00,86.5,69.5,29.93,SW,231,2.0,12.0,57,0.00,,,0.00,608,Wunderground v.1.15,2013-09-10 15:36:00,
2013-09-10 10:42:00,87.1,70.0,29.93,SW,228,2.0,6.0,57,0.00,,,0.00,624,Wunderground v.1.15,2013-09-10 15:42:00,
2013-09-10 10:48:00,87.5,69.3,29.93,WSW,246,2.0,6.0,55,0.00,,,0.00,635,Wunderground v.1.15,2013-09-10 15:48:00,
2013-09-10 10:54:00,88.0,68.7,29.93,WSW,250,2.0,6.0,53,0.00,,,0.00,647,Wunderground v.1.15,2013-09-10 15:54:00,
2013-09-10 11:00:00,88.1,69.4,29.93,West,269,3.0,3.0,54,0.00,,,0.00,656,Wunderground v.1.15,2013-09-10 16:00:00,
2013-09-10 11:06:00,88.5,69.2,29.93,WSW,255,2.0,9.0,53,0.00,,,0.00,668,Wunderground v.1.15,2013-09-10 16:06:00,
2013-09-10 11:12:00,88.8,68.9,29.93,SW,220,3.0,12.0,52,0.00,,,0.00,679,Wunderground v.1.15,2013-09-10 16:12:00,
2013-09-10 11:18:00,89.0,69.1,29.93,WSW,238,3.0,12.0,52,0.00,,,0.00,687,Wunderground v.1.15,2013-09-10 16:18:00,
2013-09-10 11:24:00,89.3,68.8,29.92,SW,217,3.0,6.0,51,0.00,,,0.00,700,Wunderground v.1.15,2013-09-10 16:24:00,
2013-09-10 11:30:00,89.5,69.5,29.92,SW,214,2.0,6.0,52,0.00,,,0.00,710,Wunderground v.1.15,2013-09-10 16:30:00,
2013-09-10 11:36:00,90.0,69.4,29.92,ESE,119,1.0,6.0,51,0.00,,,0.00,717,Wunderground v.1.15,2013-09-10 16:36:00,
2013-09-10 11:42:00,90.2,69.0,29.92,SW,221,3.0,6.0,50,0.00,,,0.00,724,Wunderground v.1.15,2013-09-10 16:42:00,
2013-09-10 11:48:00,90.5,68.1,29.92,SSW,205,4.0,15.0,48,0.00,,,0.00,731,Wunderground v.1.15,2013-09-10 16:48:00,
2013-09-10 11:54:00,90.2,67.9,29.92,WSW,258,6.0,6.0,48,0.00,,,0.00,738,Wunderground v.1.15,2013-09-10 16:54:00,
2013-09-10 12:00:00,90.5,67.5,29.92,West,263,5.0,5.0,47,0.00,,,0.00,745,Wunderground v.1.15,2013-09-10 17:00:00,
2013-09-10 12:06:00,90.7,68.3,29.92,South,188,3.0,6.0,48,0.00,,,0.00,752,Wunderground v.1.15,2013-09-10 17:06:00,
2013-09-10 12:12:00,91.1,68.1,29.92,WSW,240,2.0,15.0,47,0.00,,,0.00,758,Wunderground v.1.15,2013-09-10 17:12:00,
2013-09-10 12:18:00,91.3,68.2,29.92,SSW,196,2.0,15.0,47,0.00,,,0.00,758,Wunderground v.1.15,2013-09-10 17:18:00,
2013-09-10 12:24:00,91.5,68.4,29.92,South,175,1.0,6.0,47,0.00,,,0.00,768,Wunderground v.1.15,2013-09-10 17:24:00,
2013-09-10 12:30:00,91.8,67.4,29.91,SW,229,2.0,2.0,45,0.00,,,0.00,770,Wunderground v.1.15,2013-09-10 17:30:00,
2013-09-10 12:36:00,92.0,67.6,29.92,West,276,2.0,6.0,45,0.00,,,0.00,772,Wunderground v.1.15,2013-09-10 17:36:00,
2013-09-10 12:42:00,92.2,68.4,29.91,WSW,258,2.0,6.0,46,0.00,,,0.00,775,Wunderground v.1.15,2013-09-10 17:42:00,
2013-09-10 12:48:00,92.5,67.4,29.91,SW,225,3.0,8.0,44,0.00,,,0.00,770,Wunderground v.1.15,2013-09-10 17:48:00,
2013-09-10 12:54:00,92.3,67.9,29.91,WSW,243,5.0,11.0,45,0.00,,,0.00,768,Wunderground v.1.15,2013-09-10 17:54:00,
2013-09-10 13:00:00,92.7,66.2,29.92,WSW,251,4.0,13.0,42,0.00,,,0.00,772,Wunderground v.1.15,2013-09-10 18:00:00,
2013-09-10 13:06:00,92.5,66.1,29.91,WSW,247,9.0,13.0,42,0.00,,,0.00,768,Wunderground v.1.15,2013-09-10 18:06:00,
2013-09-10 13:12:00,93.0,65.8,29.91,WSW,239,5.0,14.0,41,0.00,,,0.00,780,Wunderground v.1.15,2013-09-10 18:12:00,
2013-09-10 13:18:00,92.9,65.7,29.91,WSW,253,6.0,14.0,41,0.00,,,0.00,768,Wunderground v.1.15,2013-09-10 18:18:00,
2013-09-10 13:24:00,92.8,66.3,29.90,WNW,292,7.0,16.0,42,0.00,,,0.00,777,Wunderground v.1.15,2013-09-10 18:24:00,
2013-09-10 13:30:00,93.3,65.4,29.90,SW,228,6.0,6.0,40,0.00,,,0.00,784,Wunderground v.1.15,2013-09-10 18:30:00,
2013-09-10 13:36:00,93.6,65.6,29.90,WSW,255,4.0,6.0,40,0.00,,,0.00,800,Wunderground v.1.15,2013-09-10 18:36:00,
2013-09-10 13:42:00,93.4,65.5,29.90,West,259,4.0,6.0,40,0.00,,,0.00,758,Wunderground v.1.15,2013-09-10 18:42:00,
2013-09-10 13:48:00,93.2,65.3,29.90,North,360,6.0,7.0,40,0.00,,,0.00,773,Wunderground v.1.15,2013-09-10 18:48:00,
2013-09-10 13:54:00,93.3,65.4,29.90,SW,223,4.0,6.0,40,0.00,,,0.00,745,Wunderground v.1.15,2013-09-10 18:54:00,
2013-09-10 14:00:00,93.3,65.4,29.90,West,271,5.0,5.0,40,0.00,,,0.00,809,Wunderground v.1.15,2013-09-10 19:00:00,
2013-09-10 14:06:00,93.4,65.5,29.90,SW,234,3.0,14.0,40,0.00,,,0.00,789,Wunderground v.1.15,2013-09-10 19:06:00,
2013-09-10 14:12:00,94.2,66.9,29.89,South,169,2.0,6.0,41,0.00,,,0.00,814,Wunderground v.1.15,2013-09-10 19:12:00,
2013-09-10 14:18:00,94.6,65.8,29.89,North,360,1.0,7.0,39,0.00,,,0.00,802,Wunderground v.1.15,2013-09-10 19:18:00,
2013-09-10 14:24:00,94.4,66.4,29.89,WSW,240,4.0,9.0,40,0.00,,,0.00,754,Wunderground v.1.15,2013-09-10 19:24:00,
2013-09-10 14:30:00,94.6,66.5,29.89,North,360,3.0,6.0,40,0.00,,,0.00,461,Wunderground v.1.15,2013-09-10 19:30:00,
2013-09-10 14:36:00,94.2,67.6,29.89,SSW,195,2.0,16.0,42,0.00,,,0.00,156,Wunderground v.1.15,2013-09-10 19:36:00,
2013-09-10 14:42:00,93.9,67.3,29.89,North,360,1.0,6.0,42,0.00,,,0.00,775,Wunderground v.1.15,2013-09-10 19:42:00,
2013-09-10 14:48:00,93.6,67.1,29.89,WSW,257,1.0,6.0,42,0.00,,,0.00,775,Wunderground v.1.15,2013-09-10 19:48:00,
2013-09-10 14:54:00,93.8,67.2,29.89,North,360,1.0,6.0,42,0.00,,,0.00,747,Wunderground v.1.15,2013-09-10 19:54:00,
2013-09-10 15:00:00,94.0,66.0,29.89,SW,232,1.0,6.0,40,0.00,,,0.00,745,Wunderground v.1.15,2013-09-10 20:00:00,
2013-09-10 15:06:00,94.5,65.0,29.88,SW,234,2.0,9.0,38,0.00,,,0.00,735,Wunderground v.1.15,2013-09-10 20:06:00,
2013-09-10 15:12:00,94.6,65.8,29.88,SW,229,2.0,6.0,39,0.00,,,0.00,197,Wunderground v.1.15,2013-09-10 20:12:00,
2013-09-10 15:18:00,94.1,66.8,29.89,WSW,243,2.0,6.0,41,0.00,,,0.00,225,Wunderground v.1.15,2013-09-10 20:18:00,
2013-09-10 15:24:00,93.6,66.4,29.88,South,186,2.0,6.0,41,0.00,,,0.00,214,Wunderground v.1.15,2013-09-10 20:24:00,
2013-09-10 15:30:00,93.8,66.5,29.88,North,360,1.0,1.0,41,0.00,,,0.00,719,Wunderground v.1.15,2013-09-10 20:30:00,
2013-09-10 15:36:00,94.0,66.0,29.88,SW,231,0.0,6.0,40,0.00,,,0.00,216,Wunderground v.1.15,2013-09-10 20:36:00,
2013-09-10 15:42:00,94.1,66.1,29.88,North,360,1.0,6.0,40,0.00,,,0.00,399,Wunderground v.1.15,2013-09-10 20:42:00,
2013-09-10 15:48:00,93.8,66.5,29.88,SW,225,2.0,6.0,41,0.00,,,0.00,199,Wunderground v.1.15,2013-09-10 20:48:00,
2013-09-10 15:54:00,93.9,66.6,29.88,SW,233,1.0,6.0,41,0.00,,,0.00,659,Wunderground v.1.15,2013-09-10 20:54:00,
2013-09-10 16:00:00,94.2,66.2,29.88,North,360,3.0,3.0,40,0.00,,,0.00,659,Wunderground v.1.15,2013-09-10 21:00:00,
2013-09-10 16:06:00,94.3,66.3,29.88,North,360,2.0,6.0,40,0.00,,,0.00,121,Wunderground v.1.15,2013-09-10 21:06:00,
2013-09-10 16:12:00,94.4,66.4,29.88,North,360,0.0,6.0,40,0.00,,,0.00,550,Wunderground v.1.15,2013-09-10 21:12:00,
2013-09-10 16:18:00,94.3,66.3,29.88,SSW,200,1.0,6.0,40,0.00,,,0.00,504,Wunderground v.1.15,2013-09-10 21:18:00,
2013-09-10 16:24:00,94.4,66.4,29.88,South,190,1.0,6.0,40,0.00,,,0.00,452,Wunderground v.1.15,2013-09-10 21:24:00,
2013-09-10 16:30:00,94.2,66.9,29.87,North,360,0.0,6.0,41,0.00,,,0.00,466,Wunderground v.1.15,2013-09-10 21:30:00,
2013-09-10 16:36:00,94.3,66.3,29.87,SSE,159,1.0,12.0,40,0.00,,,0.00,425,Wunderground v.1.15,2013-09-10 21:36:00,
2013-09-10 16:42:00,94.4,66.4,29.87,SW,224,1.0,6.0,40,0.00,,,0.00,401,Wunderground v.1.15,2013-09-10 21:42:00,
2013-09-10 16:48:00,94.3,66.3,29.87,South,176,1.0,6.0,40,0.00,,,0.00,406,Wunderground v.1.15,2013-09-10 21:48:00,
2013-09-10 16:54:00,94.4,66.4,29.86,WSW,246,0.0,6.0,40,0.00,,,0.00,362,Wunderground v.1.15,2013-09-10 21:54:00,
2013-09-10 17:00:00,94.4,66.4,29.86,South,191,0.0,6.0,40,0.00,,,0.00,352,Wunderground v.1.15,2013-09-10 22:00:00,
2013-09-10 17:06:00,94.3,66.3,29.86,WSW,241,0.0,6.0,40,0.00,,,0.00,334,Wunderground v.1.15,2013-09-10 22:06:00,
2013-09-10 17:12:00,94.4,67.8,29.86,SSW,194,0.0,6.0,42,0.00,,,0.00,308,Wunderground v.1.15,2013-09-10 22:12:00,
2013-09-10 17:18:00,94.0,66.7,29.86,SSW,201,0.0,6.0,41,0.00,,,0.00,292,Wunderground v.1.15,2013-09-10 22:18:00,
2013-09-10 17:24:00,93.7,66.4,29.86,South,190,0.0,6.0,41,0.00,,,0.00,281,Wunderground v.1.15,2013-09-10 22:24:00,
2013-09-10 17:30:00,93.6,67.1,29.85,South,188,0.0,6.0,42,0.00,,,0.00,265,Wunderground v.1.15,2013-09-10 22:30:00,
2013-09-10 17:36:00,93.6,67.1,29.86,SSW,209,0.0,6.0,42,0.00,,,0.00,239,Wunderground v.1.15,2013-09-10 22:36:00,
2013-09-10 17:42:00,93.4,66.2,29.86,North,360,1.0,6.0,41,0.00,,,0.00,221,Wunderground v.1.15,2013-09-10 22:42:00,
2013-09-10 17:48:00,93.3,66.8,29.86,SSE,157,0.0,6.0,42,0.00,,,0.00,199,Wunderground v.1.15,2013-09-10 22:48:00,
2013-09-10 17:54:00,93.1,66.6,29.86,SW,229,0.0,6.0,42,0.00,,,0.00,179,Wunderground v.1.15,2013-09-10 22:54:00,
2013-09-10 18:00:00,92.9,67.1,29.86,North,360,0.0,6.0,43,0.00,,,0.00,158,Wunderground v.1.15,2013-09-10 23:00:00,
2013-09-10 18:06:00,92.8,67.0,29.86,SSW,192,0.0,6.0,43,0.00,,,0.00,135,Wunderground v.1.15,2013-09-10 23:06:00,
2013-09-10 18:12:00,92.7,67.6,29.86,SSW,192,0.0,6.0,44,0.00,,,0.00,116,Wunderground v.1.15,2013-09-10 23:12:00,
2013-09-10 18:18:00,92.5,68.1,29.86,SSW,192,0.0,6.0,45,0.00,,,0.00,98,Wunderground v.1.15,2013-09-10 23:18:00,
2013-09-10 18:24:00,92.1,67.7,29.86,SSE,157,0.0,6.0,45,0.00,,,0.00,83,Wunderground v.1.15,2013-09-10 23:24:00,
2013-09-10 18:30:00,91.7,67.3,29.86,North,360,0.0,6.0,45,0.00,,,0.00,63,Wunderground v.1.15,2013-09-10 23:30:00,
2013-09-10 18:36:00,91.3,67.6,29.86,SSW,192,0.0,6.0,46,0.00,,,0.00,51,Wunderground v.1.15,2013-09-10 23:36:00,
2013-09-10 18:42:00,90.8,67.8,29.86,South,178,0.0,6.0,47,0.00,,,0.00,37,Wunderground v.1.15,2013-09-10 23:42:00,
2013-09-10 18:48:00,90.4,68.0,29.87,SSW,196,0.0,6.0,48,0.00,,,0.00,30,Wunderground v.1.15,2013-09-10 23:48:00,
2013-09-10 18:54:00,89.9,67.6,29.87,SSW,199,0.0,6.0,48,0.00,,,0.00,21,Wunderground v.1.15,2013-09-10 23:54:00,
2013-09-10 19:00:00,89.5,67.8,29.88,SSW,202,0.0,6.0,49,0.00,,,0.00,18,Wunderground v.1.15,2013-09-11 00:00:00,
2013-09-10 19:06:00,89.0,67.9,29.88,SSW,194,0.0,6.0,50,0.00,,,0.00,12,Wunderground v.1.15,2013-09-11 00:06:00,
2013-09-10 19:12:00,88.5,67.5,29.88,SSW,195,0.0,6.0,50,0.00,,,0.00,7,Wunderground v.1.15,2013-09-11 00:12:00,
2013-09-10 19:18:00,88.0,67.6,29.88,SSW,199,0.0,6.0,51,0.00,,,0.00,0,Wunderground v.1.15,2013-09-11 00:18:00,
2013-09-10 19:24:00,87.5,67.7,29.88,SSW,205,0.0,6.0,52,0.00,,,0.00,0,Wunderground v.1.15,2013-09-11 00:24:00,
2013-09-10 19:30:00,87.2,67.4,29.88,North,360,0.0,6.0,52,0.00,,,0.00,0,Wunderground v.1.15,2013-09-11 00:30:00,
2013-09-10 19:36:00,86.7,67.5,29.88,SSW,193,0.0,6.0,53,0.00,,,0.00,0,Wunderground v.1.15,2013-09-11 00:36:00,
2013-09-10 19:42:00,86.4,67.2,29.88,SSW,195,0.0,6.0,53,0.00,,,0.00,0,Wunderground v.1.15,2013-09-11 00:42:00,
2013-09-10 19:48:00,86.0,66.9,29.89,SSW,196,0.0,6.0,53,0.00,,,0.00,0,Wunderground v.1.15,2013-09-11 00:48:00,
2013-09-10 19:54:00,85.6,67.0,29.89,SSW,196,0.0,6.0,54,0.00,,,0.00,0,Wunderground v.1.15,2013-09-11 00:54:00,
2013-09-10 20:00:00,85.2,67.2,29.89,SSW,194,0.0,6.0,55,0.00,,,0.00,0,Wunderground v.1.15,2013-09-11 01:00:00,
2013-09-10 20:06:00,84.8,67.4,29.90,SSW,194,0.0,6.0,56,0.00,,,0.00,0,Wunderground v.1.15,2013-09-11 01:06:00,
2013-09-10 20:12:00,84.3,66.9,29.90,SSW,194,0.0,6.0,56,0.00,,,0.00,0,Wunderground v.1.15,2013-09-11 01:12:00,
2013-09-10 20:18:00,83.9,67.0,29.90,SSW,200,0.0,6.0,57,0.00,,,0.00,0,Wunderground v.1.15,2013-09-11 01:18:00,
2013-09-10 20:24:00,83.7,66.3,29.90,South,175,0.0,6.0,56,0.00,,,0.00,0,Wunderground v.1.15,2013-09-11 01:24:00,
2013-09-10 20:30:00,83.6,66.8,29.91,SSW,207,0.0,6.0,57,0.00,,,0.00,0,Wunderground v.1.15,2013-09-11 01:30:00,
2013-09-10 20:36:00,83.4,66.6,29.91,SSW,192,0.0,6.0,57,0.00,,,0.00,0,Wunderground v.1.15,2013-09-11 01:36:00,
2013-09-10 20:42:00,83.3,66.5,29.91,South,188,0.0,6.0,57,0.00,,,0.00,0,Wunderground v.1.15,2013-09-11 01:42:00,
2013-09-10 20:48:00,83.0,66.2,29.91,South,188,0.0,6.0,57,0.00,,,0.00,0,Wunderground v.1.15,2013-09-11 01:48:00,
2013-09-10 20:54:00,82.7,66.4,29.91,SSW,202,0.0,6.0,58,0.00,,,0.00,0,Wunderground v.1.15,2013-09-11 01:54:00,
2013-09-10 21:00:00,82.4,66.1,29.92,SSW,202,0.0,6.0,58,0.00,,,0.00,0,Wunderground v.1.15,2013-09-11 02:00:00,
2013-09-10 21:06:00,82.0,66.3,29.92,SSW,202,0.0,6.0,59,0.00,,,0.00,0,Wunderground v.1.15,2013-09-11 02:06:00,
2013-09-10 21:12:00,81.6,66.4,29.92,SSW,196,0.0,6.0,60,0.00,,,0.00,0,Wunderground v.1.15,2013-09-11 02:12:00,
2013-09-10 21:18:00,81.4,66.7,29.92,North,360,0.0,6.0,61,0.00,,,0.00,0,Wunderground v.1.15,2013-09-11 02:18:00,
2013-09-10 21:24:00,81.2,66.5,29.92,North,360,0.0,6.0,61,0.00,,,0.00,0,Wunderground v.1.15,2013-09-11 02:24:00,
2013-09-10 21:30:00,80.9,66.7,29.92,SSE,168,0.0,6.0,62,0.00,,,0.00,0,Wunderground v.1.15,2013-09-11 02:30:00,
2013-09-10 21:36:00,80.7,66.9,29.92,South,190,0.0,6.0,63,0.00,,,0.00,0,Wunderground v.1.15,2013-09-11 02:36:00,
2013-09-10 21:42:00,80.5,66.7,29.92,SSW,192,0.0,6.0,63,0.00,,,0.00,0,Wunderground v.1.15,2013-09-11 02:42:00,
2013-09-10 21:48:00,80.3,67.0,29.92,SSW,200,0.0,6.0,64,0.00,,,0.00,0,Wunderground v.1.15,2013-09-11 02:48:00,
2013-09-10 21:54:00,80.1,66.8,29.92,SW,219,0.0,6.0,64,0.00,,,0.00,0,Wunderground v.1.15,2013-09-11 02:54:00,
2013-09-10 22:00:00,79.9,67.1,29.92,SSW,198,0.0,6.0,65,0.00,,,0.00,0,Wunderground v.1.15,2013-09-11 03:00:00,
2013-09-10 22:06:00,79.9,67.1,29.92,SSW,192,0.0,6.0,65,0.00,,,0.00,0,Wunderground v.1.15,2013-09-11 03:06:00,
2013-09-10 22:12:00,79.8,67.0,29.92,South,190,0.0,6.0,65,0.00,,,0.00,0,Wunderground v.1.15,2013-09-11 03:12:00,
2013-09-10 22:18:00,79.6,66.8,29.93,South,190,0.0,6.0,65,0.00,,,0.00,0,Wunderground v.1.15,2013-09-11 03:18:00,
2013-09-10 22:24:00,79.4,66.6,29.93,SSW,200,0.0,6.0,65,0.00,,,0.00,0,Wunderground v.1.15,2013-09-11 03:24:00,
2013-09-10 22:30:00,79.3,66.5,29.93,SSW,200,0.0,6.0,65,0.00,,,0.00,0,Wunderground v.1.15,2013-09-11 03:30:00,
2013-09-10 22:36:00,79.3,66.5,29.93,South,179,0.0,6.0,65,0.00,,,0.00,0,Wunderground v.1.15,2013-09-11 03:36:00,
2013-09-10 22:42:00,79.3,66.5,29.93,South,185,0.0,6.0,65,0.00,,,0.00,0,Wunderground v.1.15,2013-09-11 03:42:00,
2013-09-10 22:48:00,79.3,66.5,29.93,SSW,211,0.0,6.0,65,0.00,,,0.00,0,Wunderground v.1.15,2013-09-11 03:48:00,
2013-09-10 22:54:00,79.3,66.5,29.93,SSW,193,0.0,6.0,65,0.00,,,0.00,0,Wunderground v.1.15,2013-09-11 03:54:00,
2013-09-10 23:00:00,79.2,66.4,29.93,North,360,0.0,6.0,65,0.00,,,0.00,0,Wunderground v.1.15,2013-09-11 04:00:00,
2013-09-10 23:02:00,79.2,66.4,29.93,South,175,0.0,6.0,65,0.00,,,0.00,0,Wunderground v.1.15,2013-09-11 04:02:00,
2013-09-10 23:04:00,79.2,66.4,29.93,SSW,192,0.0,6.0,65,0.00,,,0.00,0,Wunderground v.1.15,2013-09-11 04:04:00,
2013-09-10 23:06:00,79.2,66.4,29.93,SW,217,0.0,6.0,65,0.00,,,0.00,0,Wunderground v.1.15,2013-09-11 04:06:00,
2013-09-10 23:10:00,79.3,66.5,29.93,SSW,197,0.0,6.0,65,0.00,,,0.00,0,Wunderground v.1.15,2013-09-11 04:10:00,
2013-09-10 23:16:00,79.2,66.9,29.93,SSW,199,0.0,6.0,66,0.00,,,0.00,0,Wunderground v.1.15,2013-09-11 04:16:00,
2013-09-10 23:20:00,79.2,66.9,29.93,SW,216,0.0,6.0,66,0.00,,,0.00,0,Wunderground v.1.15,2013-09-11 04:20:00,
2013-09-10 23:26:00,79.2,66.9,29.93,SSW,203,0.0,6.0,66,0.00,,,0.00,0,Wunderground v.1.15,2013-09-11 04:26:00,
2013-09-10 23:32:00,79.2,66.9,29.93,SSE,156,0.0,6.0,66,0.00,,,0.00,0,Wunderground v.1.15,2013-09-11 04:32:00,
2013-09-10 23:38:00,79.1,66.8,29.93,SW,228,0.0,6.0,66,0.00,,,0.00,0,Wunderground v.1.15,2013-09-11 04:38:00,
2013-09-10 23:44:00,79.1,66.3,29.93,SSW,204,0.0,6.0,65,0.00,,,0.00,0,Wunderground v.1.15,2013-09-11 04:44:00,
2013-09-10 23:50:00,79.2,66.4,29.93,SSW,210,0.0,6.0,65,0.00,,,0.00,0,Wunderground v.1.15,2013-09-11 04:50:00,
2013-09-10 23:56:00,79.2,66.4,29.93,South,188,0.0,6.0,65,0.00,,,0.00,0,Wunderground v.1.15,2013-09-11 04:56:00,